[ hide orbit diagram ]
For accurate long-term ephemerides, please instead use our Horizons system.This orbit viewer was implemented using two-body methods, and hence should not be used for determining accurate long-term trajectories (over several years or decades) or planetary encounter circumstances.
Orbital Elements at Epoch 2459200.5 (2020-Dec-17.0) TDB
Reference: JPL 36 (heliocentric ecliptic J2000)
Element | Value | Uncertainty (1-sigma) | Units |
e | .2283585554667852 | 1.4613e-08 | |
a | 2.606651818261126 | 8.6748e-09 | au |
q | 2.011400574438146 | 3.728e-08 | au |
i | 12.42039999290129 | 9.8795e-07 | deg |
node | 250.0945667839538 | 1.6766e-06 | deg |
peri | 108.835728166879 | 4.96e-06 | deg |
M | 118.0203432782576 | 4.7608e-06 | deg |
tp | 2458696.561735150675 (2019-Aug-01.06173515) | 1.9147e-05 | TDB |
period | 1537.173764340159 4.21 | 7.6734e-06 2.101e-08 | d yr |
n | .2341960345351926 | 1.1691e-09 | deg/d |
Q | 3.201903062084105 | 1.0656e-08 | au |
|
| | Orbit Determination Parameters
Additional Information
|
[ show covariance matrix ]
Physical Parameter Table
Parameter |
Symbol |
Value |
Units |
Sigma |
Reference |
Notes |
absolute magnitude |
H |
12.37 |
|
n/a |
E2021B10 |
|
diameter |
diameter |
8.887 |
km |
0.306 |
urn:nasa:pds:neowise_diameters_albedos::2.0[mainbelt] (http://adsabs.harvard.edu/abs/2011ApJ...741...68M) |
|
rotation period |
rot_per |
5.847 |
h |
n/a |
LCDB (Rev. 2020-October); Warner et al., 2009 |
Published Reference List: [Behrend, R. (2019) Observatoire de Geneve web site, http://obswww.unige.ch/~behrend/page_cou.html] [Polakis, T. (2020) Minor Planet Bull. 47, 94-101.] |
geometric albedo |
albedo |
0.323 |
|
0.047 |
urn:nasa:pds:neowise_diameters_albedos::2.0[mainbelt] (http://adsabs.harvard.edu/abs/2011ApJ...741...68M) |
|
|
3606 Pohjola (1939 SF) Discovered 1939-Sep-19 by Vaisala, Y. at Turku |
Reference: DISCOVERY.DB | Last Updated: 2003-08-29 |
|
Alternate Designations
1939 SF = 1973 WO = 1985 LE |
|
|